User: anonymous   Login
Location: La Comballaz
(46.3780°N, 7.0817°E)
Time: 15:56:47
(UTC+00:00)
Language:

Aureole 1 Rocket - Orbit

View from above orbital plane
View from above orbital plane
View from above satellite
View from above satellite

Ground track
Ground track

The orbit data is extracted from the following two-line orbital elements,

1  5730U 71119B   21216.13143606  .00000578  00000-0  40188-4 0  9995
2  5730  73.8954 343.1613 0685412 287.2832  65.4455 14.05535698417391
Epoch (UTC): 04 August 2021 03:09:16
Eccentricity: 0.0685412
inclination: 73.8954°
perigee height: 377 km
apogee height: 1372 km
right ascension of ascending node: 343.1613°
argument of perigee: 287.2832°
revolutions per day: 14.05535698
mean anomaly at epoch: 65.4455°
orbit number at epoch: 41739

The dashed part of the orbit path shows where the satellite is in the earth's shadow,  

DLR